Home > Weather > Des Moines > Past weeks

Flag for U.S.A. Weather for the Past 2 Weeks in Des Moines, Iowa, U.S.A.

Now
20 °F

Light snow. Overcast.


Feels Like: 6 °F
Forecast: 1 / 21 °F
Wind: 16 mph from North

Location: Des Moines International Airport

Current Time: Feb 12, 2016 at 6:29:40 AM

Latest Report: Feb 12, 2016 at 5:54 AM


Visibility: 9 mi

Pressure: 30.33 "Hg

Humidity: 74%

Dew point: 13 °F

Location of Des MoinesLocation

Historic Weather in Des Moines — Graph

°F

Des Moines Temperature Yesterday

Maximum temperature yesterday: 20 °F (at 1:54 PM)
Minimum temperature yesterday: 7 °F (at 6:54 AM)
Average temperature yesterday: 15 °F

High & Low Weather Summary for the Past Weeks

 TemperatureHumidityPressure
High49 °F (Jan 30, 1:54 PM)93% (Feb 1, 6:54 AM)30.46 "Hg (Feb 1, 6:54 AM)
Low7 °F (Feb 11, 6:54 AM)43% (Feb 11, 12:54 PM)29.45 "Hg (Feb 2, 9:54 PM)
Average28 °F73%30.01 "Hg
* Reported Jan 28 4:54 AM — Feb 12 4:54 AM, Des Moines, Weather by CustomWeather, © 2016

Note: Actual official high and low records may vary slightly from our data, if they occured in-between our weather recording intervals... More about our weather records

Advertising

Des Moines Weather History for the Previous 24 Hours

 ConditionsComfort  
Time TempWeatherWind HumidityBarometerVisibility
4:54 AM
Fri, Feb 12
20 °FLight snow. Overcast.16 mph82%30.30 "Hg10 mi
3:54 AM20 °FLight snow. Overcast.8 mph85%30.27 "Hg10 mi
2:54 AM20 °FOvercast.5 mph82%30.27 "Hg10 mi
1:54 AM19 °FLight snow. Overcast.3 mph85%30.27 "Hg9 mi
12:54 AM19 °FOvercast.3 mph85%30.27 "Hg10 mi
11:54 PM
Thu, Feb 11
19 °FOvercast.5 mph85%30.28 "Hg9 mi
10:54 PM18 °FLight snow. Mostly cloudy.5 mph80%30.29 "Hg9 mi
9:54 PM19 °FLight snow. Overcast.3 mph81%30.29 "Hg3 mi
8:54 PM19 °FLight snow. Overcast.5 mph81%30.30 "Hg2 mi
7:54 PM19 °FLight snow. Overcast.3 mph81%30.31 "Hg2 mi
6:54 PM19 °FLight snow. Overcast.5 mph74%30.32 "Hg2 mi
5:54 PM19 °FLight snow. Overcast.6 mph71%30.31 "Hg1 mi
4:54 PM20 °FLight snow. Mostly cloudy.6 mph55%30.30 "Hg4 mi
2:54 PM20 °FMostly cloudy.7 mph50%30.30 "Hg10 mi
1:54 PM20 °FBroken clouds.6 mph43%30.32 "Hg10 mi
12:54 PM19 °FPartly sunny.7 mph43%30.35 "Hg10 mi
11:54 AM16 °FBroken clouds.5 mph49%30.39 "Hg10 mi
10:54 AM14 °FScattered clouds.3 mph53%30.40 "Hg10 mi
9:54 AM13 °FScattered clouds.5 mph54%30.39 "Hg10 mi
8:54 AM11 °FPassing clouds.3 mph59%30.40 "Hg10 mi
7:54 AM8 °FPassing clouds.3 mph63%30.39 "Hg10 mi
6:54 AM7 °FPassing clouds.9 mph66%30.38 "Hg10 mi
Weather by CustomWeather, © 2016

See weather overviewHow to use our weather pages